Language: 


Des rapports , des résumés tant et plus, au choix de chacun....


Données Historiques de Météogheer
Journalier Rapport pour Février 4, 2018 Unitée:  Impériale    Métrique   Les deux
Suivant Jour »
Journalier Hebdomadaire Mensuel Annuel Sur mesure
  Max: Min: Moyenne:
Température: 43.2 °F 32.2 °F 36.5 °F
Point de rosée: 37.4 °F 26.6 °F 31.5 °F
Humidité: 98% 57% 81%
Vent: 23.9mph 0mph 8.4mph
Rafales: 24.4mph - -
Vent- - ENE
Pression: 30.3 in 29.8 in -
Pluie: 0.01 in    
Historical Graphs
 
 
Données tabulaires pour Février 4, 2018
Heure Température Point de rosée Pression Vent Vent Rafales Humidité Pluie Taux (Horaire) Conditions
00:00 35.4 °F 35.6 °F 29.8 in Calm   3.1 mph 98% 0 in
00:05 35.2 °F 35.6 °F 29.8 in Calm     98% 0 in
00:10 35.1 °F 35.6 °F 29.8 in Calm   2 mph 98% 0 in
00:15 35.1 °F 35.6 °F 29.8 in Calm   2 mph 98% 0 in
00:20 35.1 °F 35.6 °F 29.8 in North 2.7 mph 4 mph 98% 0 in
00:25 35.1 °F 35.6 °F 29.8 in Calm   4 mph 98% 0 in
00:30 35.2 °F 35.6 °F 29.8 in NNE 2.5 mph 4 mph 98% 0 in
00:35 35.4 °F 35.6 °F 29.8 in NE 3.1 mph 4.9 mph 98% 0 in
00:40 35.6 °F 35.6 °F 29.8 in North 2.9 mph 5.8 mph 98% 0 in
00:45 35.6 °F 35.6 °F 29.8 in North 3.8 mph 5.8 mph 98% 0 in
00:47 35.6 °F 35.6 °F 29.8 in NNE 4.7 mph 5.8 mph 98% 0 in
00:52 35.8 °F 35.6 °F 29.8 in North 4 mph 4.7 mph 98% 0 in
00:57 35.8 °F 35.6 °F 29.8 in North 2 mph 4.7 mph 98% 0 in
01:02 36.1 °F 37.4 °F 29.8 in North 4.7 mph 4.9 mph 98% 0 in
01:07 36.3 °F 37.4 °F 29.8 in Calm   7.4 mph 98% 0 in
01:12 36.7 °F 37.4 °F 29.8 in Calm   7.4 mph 98% 0 in
01:17 36.7 °F 37.4 °F 29.8 in NE 1.3 mph 5.8 mph 98% 0 in
01:22 36.9 °F 37.4 °F 29.8 in NW 4 mph 4.3 mph 98% 0 in
01:27 37 °F 37.4 °F 29.8 in NNE 5.8 mph 6.3 mph 98% 0 in
01:37 37.2 °F 37.4 °F 29.8 in NE 4 mph 5.8 mph 98% 0 in
01:42 37.2 °F 37.4 °F 29.8 in North 2.7 mph 5.8 mph 98% 0 in
01:47 37.2 °F 37.4 °F 29.8 in NNE 3.4 mph 6 mph 98% 0 in
01:52 37.2 °F 37.4 °F 29.8 in NNE 3.1 mph 6 mph 98% 0 in
01:57 37.2 °F 37.4 °F 29.8 in NNE 3.4 mph 6 mph 98% 0 in
02:02 37 °F 37.4 °F 29.8 in NE 6.3 mph 7.4 mph 98% 0 in
02:07 37 °F 37.4 °F 29.8 in NNE 7.4 mph 8.7 mph 98% 0 in
02:13 37 °F 37.4 °F 29.8 in NE 5.6 mph 8.7 mph 98% 0 in
02:18 37 °F 37.4 °F 29.9 in NE 6.5 mph 8.5 mph 98% 0 in
02:23 37.4 °F 37.4 °F 29.9 in NE 7.2 mph 8.7 mph 98% 0 in
02:28 37.4 °F 37.4 °F 29.9 in NE 5.8 mph 8.7 mph 98% 0 in
02:33 37.4 °F 37.4 °F 29.8 in NNE 7.4 mph 9.6 mph 98% 0 in
02:38 37.4 °F 37.4 °F 29.8 in NE 8.9 mph 12.3 mph 98% 0 in
02:43 37.4 °F 37.4 °F 29.8 in NE 10.1 mph 12.3 mph 98% 0 in
02:48 37.4 °F 37.4 °F 29.8 in NNE 6.5 mph 12.3 mph 98% 0 in
02:53 37.4 °F 37.4 °F 29.8 in NE 8.1 mph 10.1 mph 98% 0.01 in
02:58 37.2 °F 37.4 °F 29.8 in NE 8.1 mph 13.2 mph 98% 0.01 in
03:03 37.2 °F 37.4 °F 29.9 in NE 9.6 mph 13.2 mph 98% 0.01 in
03:08 37 °F 37.4 °F 29.9 in NE 7.6 mph 14.1 mph 98% 0.01 in
03:13 37 °F 37.4 °F 29.9 in NE 9.4 mph 14.1 mph 98% 0.01 in
03:18 36.9 °F 37.4 °F 29.9 in NE 8.1 mph 13.4 mph 98% 0.01 in
03:23 36.7 °F 37.4 °F 29.9 in NE 19.7 mph 19.7 mph 98% 0.01 in
03:28 36.5 °F 37.4 °F 29.9 in NNE 10.7 mph 19.7 mph 98% 0.01 in
03:33 36.5 °F 37.4 °F 29.9 in NNE 11 mph 15.4 mph 98% 0.01 in
03:38 36.3 °F 37.4 °F 29.9 in NNE 8.7 mph 14.1 mph 98% 0.01 in
03:43 36.3 °F 37.4 °F 29.9 in NE 8.9 mph 14.1 mph 98% 0.01 in
03:48 36.1 °F 37.4 °F 29.9 in NNE 15.2 mph 15.2 mph 98% 0.01 in
03:53 36.1 °F 37.4 °F 29.9 in NE 8.5 mph 15.4 mph 98% 0 in
03:58 36.1 °F 37.4 °F 29.9 in NNE 9.8 mph 15.4 mph 98% 0 in
04:03 36.1 °F 37.4 °F 29.9 in North 11 mph 14.5 mph 98% 0 in
04:08 36 °F 35.6 °F 29.9 in NE 8.7 mph 15.7 mph 98% 0 in
04:13 35.8 °F 35.6 °F 29.9 in NNE 15.2 mph 17 mph 97% 0 in
04:18 35.8 °F 35.6 °F 29.9 in ENE 10.5 mph 17 mph 96% 0 in
04:23 35.8 °F 35.6 °F 29.9 in NE 8.5 mph 15.2 mph 96% 0 in
04:28 35.8 °F 35.6 °F 29.9 in NE 13 mph 14.3 mph 95% 0 in
04:34 35.8 °F 35.6 °F 29.9 in NNE 8.1 mph 13 mph 95% 0 in
04:39 35.6 °F 35.6 °F 29.9 in NNE 9.8 mph 13 mph 95% 0 in
04:44 35.6 °F 35.6 °F 29.9 in North 8.5 mph 10.5 mph 95% 0 in
04:49 35.6 °F 35.6 °F 29.9 in NE 8.1 mph 10.7 mph 95% 0 in
04:54 35.6 °F 35.6 °F 29.9 in NE 10.7 mph 10.7 mph 95% 0 in
04:59 35.4 °F 33.8 °F 29.9 in NE 12.8 mph 16.8 mph 93% 0 in
05:04 35.4 °F 33.8 °F 29.9 in NE 10.5 mph 17.9 mph 91% 0 in
05:09 35.4 °F 33.8 °F 29.9 in NE 11 mph 17.9 mph 89% 0 in
05:14 35.4 °F 32 °F 29.9 in NE 10.1 mph 19 mph 88% 0 in
05:19 35.2 °F 32 °F 29.9 in NNE 17.7 mph 19 mph 86% 0 in
05:24 35.2 °F 32 °F 29.9 in NE 9.6 mph 17.7 mph 86% 0 in
05:29 35.1 °F 32 °F 29.9 in NNE 9.8 mph 15.7 mph 87% 0 in
05:34 35.1 °F 32 °F 29.9 in NE 10.3 mph 15.4 mph 87% 0 in
05:39 35.1 °F 32 °F 29.9 in NNE 10.1 mph 15.4 mph 87% 0 in
05:44 35.1 °F 32 °F 30 in NE 6.5 mph 14.3 mph 88% 0 in
05:49 34.9 °F 32 °F 30 in ENE 14.5 mph 14.8 mph 87% 0 in
05:54 34.5 °F 30.2 °F 30 in NE 12.1 mph 16.8 mph 85% 0 in
05:59 34.3 °F 30.2 °F 29.9 in NE 16.8 mph 22.1 mph 82% 0 in
06:04 34 °F 28.4 °F 29.9 in NE 12.5 mph 22.8 mph 79% 0 in
06:09 33.8 °F 28.4 °F 29.9 in NNE 10.1 mph 22.8 mph 81% 0 in
06:14 33.8 °F 28.4 °F 30 in NE 16.1 mph 21 mph 81% 0 in
06:19 33.6 °F 28.4 °F 30 in NE 12.5 mph 17.4 mph 80% 0 in
06:24 33.3 °F 28.4 °F 30 in NE 15.4 mph 17.4 mph 80% 0 in
06:29 33.3 °F 28.4 °F 30 in NNE 10.7 mph 17 mph 80% 0 in
06:34 33.1 °F 28.4 °F 30 in NE 10.3 mph 17.4 mph 80% 0 in
06:39 32.9 °F 28.4 °F 30 in NNE 13 mph 17.4 mph 81% 0 in
06:45 32.7 °F 28.4 °F 30 in NNE 10.3 mph 14.1 mph 80% 0 in
06:50 32.7 °F 28.4 °F 30 in NE 7.8 mph 14.8 mph 80% 0 in
06:55 32.7 °F 28.4 °F 30 in North 10.7 mph 14.8 mph 81% 0 in
07:00 32.5 °F 28.4 °F 30 in NNE 10.5 mph 12.5 mph 81% 0 in
07:05 32.5 °F 28.4 °F 30 in NE 7.6 mph 14.3 mph 81% 0 in
07:10 32.5 °F 28.4 °F 30 in NE 10.3 mph 14.3 mph 82% 0 in
07:15 32.4 °F 28.4 °F 30 in NNE 8.7 mph 12.3 mph 82% 0 in
07:20 32.4 °F 28.4 °F 30 in NE 8.5 mph 13.2 mph 82% 0 in
07:25 32.2 °F 28.4 °F 30 in NE 10.3 mph 13.2 mph 83% 0 in
07:30 32.4 °F 28.4 °F 30 in NE 7.2 mph 14.5 mph 83% 0 in
07:35 32.2 °F 28.4 °F 30 in NE 7.8 mph 14.5 mph 83% 0 in
07:40 32.4 °F 28.4 °F 30 in NE 8.5 mph 12.5 mph 83% 0 in
07:45 32.5 °F 28.4 °F 30 in NE 7.8 mph 13.6 mph 83% 0 in
07:50 32.5 °F 28.4 °F 30 in NE 9.8 mph 14.5 mph 83% 0 in
07:55 32.7 °F 28.4 °F 30 in NE 10.3 mph 14.5 mph 82% 0 in
08:00 32.7 °F 28.4 °F 30 in NE 11 mph 12.8 mph 82% 0 in
08:05 32.7 °F 28.4 °F 30 in NE 7.6 mph 11 mph 82% 0 in
08:11 32.7 °F 28.4 °F 30 in NE 5.4 mph 8.7 mph 82% 0 in
08:16 32.5 °F 28.4 °F 30.1 in NE 3.6 mph 8.1 mph 83% 0 in
08:21 32.5 °F 28.4 °F 30.1 in NNE 4.9 mph 7.8 mph 83% 0 in
08:26 32.5 °F 28.4 °F 30.1 in NE 5.6 mph 7.8 mph 84% 0 in
08:31 32.5 °F 28.4 °F 30.1 in Calm   7.2 mph 84% 0 in
08:36 32.4 °F 28.4 °F 30.1 in ENE 3.8 mph 5.6 mph 84% 0 in
08:41 32.5 °F 30.2 °F 30.1 in Calm   4.9 mph 85% 0 in
08:46 32.5 °F 30.2 °F 30.1 in NE 1.1 mph 5.4 mph 85% 0 in
08:51 32.7 °F 30.2 °F 30.1 in NE 4.9 mph 5.4 mph 87% 0 in
08:56 32.7 °F 30.2 °F 30.1 in NNE 5.4 mph 6.5 mph 87% 0 in
09:01 32.9 °F 30.2 °F 30.1 in NNE 4.9 mph 7.4 mph 87% 0 in
09:06 33.1 °F 30.2 °F 30.1 in NE 5.4 mph 8.1 mph 86% 0 in
09:11 33.3 °F 30.2 °F 30.1 in NNE 4.7 mph 8.1 mph 86% 0 in
09:16 33.3 °F 30.2 °F 30.1 in NE 6 mph 7.2 mph 86% 0 in
09:21 33.4 °F 30.2 °F 30.1 in NNE 5.4 mph 7.6 mph 86% 0 in
09:26 33.6 °F 30.2 °F 30.1 in NNE 4.7 mph 8.1 mph 86% 0 in
09:31 33.6 °F 30.2 °F 30.1 in NNE 4.9 mph 8.1 mph 86% 0 in
09:36 33.8 °F 30.2 °F 30.1 in NNE 3.6 mph 5.8 mph 86% 0 in
09:42 33.8 °F 30.2 °F 30.1 in NNE 4.3 mph 6 mph 86% 0 in
09:47 33.8 °F 30.2 °F 30.1 in NE 5.6 mph 6 mph 86% 0 in
09:52 34 °F 30.2 °F 30.1 in NE 8.1 mph 8.1 mph 86% 0 in
09:57 34.2 °F 30.2 °F 30.1 in NNE 7.6 mph 8.7 mph 85% 0 in
10:02 34.3 °F 30.2 °F 30.1 in NNE 6.5 mph 8.7 mph 85% 0 in
10:07 34.3 °F 30.2 °F 30.1 in NE 7.6 mph 10.1 mph 85% 0 in
10:12 34.7 °F 32 °F 30.1 in NE 8.7 mph 10.5 mph 85% 0 in
10:17 35.1 °F 30.2 °F 30.1 in North 7.4 mph 10.5 mph 84% 0 in
10:22 35.4 °F 32 °F 30.1 in NE 7.4 mph 8.7 mph 85% 0 in
10:27 35.4 °F 32 °F 30.1 in NE 7.6 mph 8.7 mph 84% 0 in
10:32 35.6 °F 32 °F 30.1 in NNE 6.7 mph 9.2 mph 83% 0 in
10:37 35.6 °F 32 °F 30.1 in NNE 8.5 mph 9.6 mph 82% 0 in
10:42 35.8 °F 32 °F 30.1 in NNE 7.4 mph 9.6 mph 83% 0 in
10:47 35.8 °F 32 °F 30.2 in NNE 7.4 mph 10.3 mph 82% 0 in
10:52 36.1 °F 32 °F 30.2 in NE 7.6 mph 10.3 mph 81% 0 in
10:57 36.3 °F 32 °F 30.2 in NNE 7.6 mph 10.7 mph 80% 0 in
11:02 36.7 °F 30.2 °F 30.1 in North 6 mph 10.7 mph 78% 0 in
11:07 37 °F 32 °F 30.1 in NE 7.4 mph 9.8 mph 78% 0 in
11:12 37 °F 32 °F 30.1 in NE 5.4 mph 8.7 mph 77% 0 in
11:17 37.8 °F 32 °F 30.2 in NNE 4.3 mph 8.1 mph 78% 0 in
11:22 38.5 °F 32 °F 30.2 in NE 4 mph 8.5 mph 76% 0 in
11:27 38.8 °F 32 °F 30.2 in ENE 8.5 mph 8.5 mph 76% 0 in
11:32 38.8 °F 30.2 °F 30.2 in ENE 7.8 mph 10.7 mph 72% 0 in
11:37 39.2 °F 32 °F 30.2 in NE 7.8 mph 10.7 mph 72% 0 in
11:42 39.4 °F 30.2 °F 30.2 in ENE 7.6 mph 11 mph 71% 0 in
11:47 39.9 °F 32 °F 30.2 in NE 8.1 mph 11 mph 71% 0 in
11:52 39.9 °F 30.2 °F 30.2 in NNE 8.5 mph 13 mph 69% 0 in
11:57 40.1 °F 30.2 °F 30.2 in NNE 10.1 mph 13 mph 67% 0 in
12:03 40.1 °F 30.2 °F 30.2 in NE 9.2 mph 14.8 mph 66% 0 in
12:08 40.5 °F 30.2 °F 30.2 in NNE 8.5 mph 14.8 mph 68% 0 in
12:13 40.5 °F 30.2 °F 30.2 in ENE 10.5 mph 14.5 mph 66% 0 in
12:18 40.6 °F 30.2 °F 30.2 in North 11 mph 14.5 mph 67% 0 in
12:23 40.8 °F 30.2 °F 30.2 in NE 7.8 mph 13.4 mph 65% 0 in
12:28 41 °F 30.2 °F 30.2 in ENE 10.7 mph 12.5 mph 65% 0 in
12:33 41.2 °F 30.2 °F 30.2 in NE 5.8 mph 12.1 mph 66% 0 in
12:38 41.4 °F 30.2 °F 30.2 in NE 10.3 mph 19.5 mph 63% 0 in
12:43 41.5 °F 30.2 °F 30.2 in NNE 12.3 mph 19.5 mph 62% 0 in
12:48 42.3 °F 30.2 °F 30.2 in North 10.3 mph 17.2 mph 63% 0 in
12:53 42.4 °F 30.2 °F 30.2 in NE 12.5 mph 17.7 mph 61% 0 in
12:58 42.1 °F 30.2 °F 30.2 in NE 12.8 mph 17.7 mph 62% 0 in
13:03 41.9 °F 30.2 °F 30.2 in ENE 15.4 mph 17.2 mph 62% 0 in
13:08 42.3 °F 30.2 °F 30.2 in NNE 17.2 mph 17.2 mph 61% 0 in
13:13 42.4 °F 30.2 °F 30.2 in NE 12.5 mph 17.4 mph 60% 0 in
13:18 42.8 °F 30.2 °F 30.2 in NNE 8.1 mph 17.4 mph 59% 0 in
13:23 42.8 °F 30.2 °F 30.2 in NE 13 mph 17.2 mph 59% 0 in
13:28 43.2 °F 30.2 °F 30.2 in NE 12.3 mph 17.2 mph 58% 0 in
13:33 42.8 °F 30.2 °F 30.2 in NNE 17.2 mph 17.2 mph 59% 0 in
13:38 42.1 °F 30.2 °F 30.2 in NE 8.7 mph 17.7 mph 59% 0 in
13:43 41.7 °F 30.2 °F 30.2 in NNE 13.9 mph 17.7 mph 60% 0 in
13:48 42.3 °F 30.2 °F 30.2 in NE 11 mph 15.9 mph 63% 0 in
13:53 43.2 °F 32 °F 30.2 in NE 11 mph 14.3 mph 64% 0 in
13:58 42.8 °F 30.2 °F 30.2 in NNW 10.1 mph 13 mph 62% 0 in
14:03 42.3 °F 30.2 °F 30.2 in NNE 13 mph 15.7 mph 62% 0 in
14:08 42.1 °F 32 °F 30.2 in NNE 12.3 mph 15.7 mph 65% 0 in
14:13 41.5 °F 30.2 °F 30.2 in NE 8.7 mph 21.9 mph 63% 0 in
14:18 41.5 °F 32 °F 30.2 in NE 20.1 mph 21.9 mph 65% 0 in
14:23 42.3 °F 33.8 °F 30.2 in NNE 19.2 mph 21 mph 69% 0 in
14:29 41.7 °F 32 °F 30.2 in NNE 13 mph 19.9 mph 69% 0 in
14:34 41.9 °F 32 °F 30.2 in NE 10.3 mph 19.9 mph 67% 0 in
14:39 42.1 °F 32 °F 30.2 in NNE 8.1 mph 19 mph 67% 0 in
14:44 41.5 °F 32 °F 30.2 in NE 23.9 mph 23.9 mph 68% 0 in
14:49 41.2 °F 32 °F 30.2 in North 19.7 mph 23.9 mph 68% 0 in
14:54 41 °F 30.2 °F 30.2 in NE 19.7 mph 24.4 mph 66% 0 in
14:59 42.1 °F 33.8 °F 30.2 in North 15.4 mph 24.4 mph 69% 0 in
15:04 42.1 °F 32 °F 30.2 in NNE 20.8 mph 20.8 mph 64% 0 in
15:09 41.4 °F 32 °F 30.2 in NNE 13.9 mph 21.3 mph 67% 0 in
15:14 41 °F 30.2 °F 30.2 in NNE 17.7 mph 22.1 mph 65% 0 in
15:19 40.5 °F 30.2 °F 30.2 in NNE 17 mph 22.6 mph 65% 0 in
15:24 41.4 °F 30.2 °F 30.2 in NE 23 mph 23 mph 65% 0 in
15:29 41.5 °F 28.4 °F 30.2 in NE 17.2 mph 23 mph 59% 0 in
15:34 41.2 °F 28.4 °F 30.2 in North 17.7 mph 19.9 mph 58% 0 in
15:39 41.5 °F 30.2 °F 30.2 in NE 8.7 mph 19.9 mph 61% 0 in
15:44 41.5 °F 28.4 °F 30.1 in NNE 12.5 mph 19.9 mph 58% 0 in
15:49 41.5 °F 28.4 °F 30.1 in NE 15.7 mph 19.7 mph 59% 0 in
15:54 40.6 °F 26.6 °F 30.1 in NE 17.4 mph 24.4 mph 58% 0 in
15:59 40.1 °F 26.6 °F 30.1 in NNE 22.8 mph 24.4 mph 57% 0 in
16:04 39.9 °F 26.6 °F 30.1 in NE 15.2 mph 22.8 mph 60% 0 in
16:09 40.1 °F 28.4 °F 30.1 in NE 15.4 mph 18.8 mph 61% 0 in
16:14 40.1 °F 26.6 °F 30.2 in NNE 12.5 mph 19.9 mph 59% 0 in
16:20 39.7 °F 26.6 °F 30.2 in North 13.2 mph 20.4 mph 58% 0 in
16:25 39.7 °F 26.6 °F 30.2 in NE 11 mph 20.4 mph 61% 0 in
16:30 39.4 °F 26.6 °F 30.2 in NE 17.9 mph 19.7 mph 62% 0 in
16:35 39.2 °F 26.6 °F 30.2 in NE 11 mph 21.3 mph 62% 0 in
16:40 39 °F 28.4 °F 30.2 in ENE 9.4 mph 21.3 mph 63% 0 in
16:45 38.8 °F 26.6 °F 30.2 in NE 15.2 mph 19 mph 62% 0 in
16:50 38.7 °F 26.6 °F 30.2 in NE 14.3 mph 17.7 mph 62% 0 in
16:55 38.5 °F 26.6 °F 30.2 in ENE 15.4 mph 17.2 mph 62% 0 in
17:00 38.1 °F 26.6 °F 30.2 in North 10.7 mph 17.2 mph 64% 0 in
17:05 37.9 °F 26.6 °F 30.2 in ENE 8.7 mph 16.1 mph 63% 0 in
17:10 37.8 °F 26.6 °F 30.2 in NE 13 mph 19.9 mph 63% 0 in
17:15 37.6 °F 26.6 °F 30.2 in ENE 10.3 mph 19.9 mph 65% 0 in
17:20 37.6 °F 26.6 °F 30.2 in NE 14.3 mph 17.4 mph 65% 0 in
17:25 37.4 °F 26.6 °F 30.2 in NE 10.3 mph 15.7 mph 65% 0 in
17:30 37 °F 28.4 °F 30.2 in NE 12.3 mph 14.5 mph 67% 0 in
17:35 37 °F 26.6 °F 30.2 in NE 11.9 mph 15.4 mph 66% 0 in
17:40 36.9 °F 26.6 °F 30.2 in NNE 12.3 mph 15.4 mph 67% 0 in
17:45 36.7 °F 26.6 °F 30.2 in NE 13 mph 15.4 mph 67% 0 in
17:50 36.7 °F 28.4 °F 30.2 in NE 11.4 mph 15.4 mph 68% 0 in
17:55 36.7 °F 28.4 °F 30.2 in NE 8.5 mph 14.8 mph 68% 0 in
18:00 36.7 °F 28.4 °F 30.2 in NE 10.5 mph 17.2 mph 68% 0 in
18:05 36.7 °F 28.4 °F 30.2 in NE 9.4 mph 17.2 mph 69% 0 in
18:11 36.7 °F 28.4 °F 30.2 in NE 9.2 mph 13.2 mph 69% 0 in
18:16 36.7 °F 28.4 °F 30.2 in NNE 8.1 mph 11.9 mph 69% 0 in
18:21 36.7 °F 28.4 °F 30.2 in NE 8.1 mph 13 mph 69% 0 in
18:26 36.5 °F 28.4 °F 30.2 in NE 7.8 mph 13 mph 69% 0 in
18:31 36.3 °F 28.4 °F 30.2 in NNE 8.7 mph 10.3 mph 70% 0 in
18:36 36 °F 28.4 °F 30.2 in NE 6.5 mph 8.7 mph 71% 0 in
18:41 35.8 °F 28.4 °F 30.2 in NE 6.7 mph 8.7 mph 71% 0 in
18:46 35.8 °F 28.4 °F 30.2 in NE 5.8 mph 8.7 mph 72% 0 in
18:51 35.6 °F 28.4 °F 30.2 in NNE 7.8 mph 8.7 mph 72% 0 in
18:56 35.4 °F 28.4 °F 30.2 in NE 7.8 mph 8.5 mph 74% 0 in
19:01 35.6 °F 28.4 °F 30.2 in NE 7.4 mph 8.9 mph 74% 0 in
19:06 35.8 °F 28.4 °F 30.2 in NNE 8.5 mph 8.9 mph 74% 0 in
19:11 35.8 °F 28.4 °F 30.2 in NNE 7.8 mph 9.2 mph 74% 0 in
19:16 35.6 °F 28.4 °F 30.2 in NE 8.5 mph 9.2 mph 74% 0 in
19:21 35.6 °F 30.2 °F 30.2 in NE 8.1 mph 8.7 mph 75% 0 in
19:26 35.1 °F 28.4 °F 30.2 in NE 6.3 mph 8.7 mph 76% 0 in
19:31 35.1 °F 28.4 °F 30.2 in NE 5.6 mph 8.5 mph 76% 0 in
19:36 34.9 °F 28.4 °F 30.2 in NNE 4 mph 7.4 mph 77% 0 in
19:41 34.9 °F 28.4 °F 30.2 in NE 2 mph 7.4 mph 77% 0 in
19:46 34.2 °F 28.4 °F 30.2 in NNE 5.6 mph 5.8 mph 78% 0 in
19:51 34 °F 28.4 °F 30.2 in NNE 6.3 mph 6.3 mph 79% 0 in
19:56 33.8 °F 28.4 °F 30.2 in NNE 3.6 mph 6.5 mph 79% 0 in
20:01 33.8 °F 28.4 °F 30.3 in NE 4.3 mph 6.5 mph 80% 0 in
20:06 33.8 °F 28.4 °F 30.3 in NNE 2.9 mph 6 mph 81% 0 in
20:11 33.8 °F 28.4 °F 30.3 in NNE 3.6 mph 6 mph 81% 0 in
20:17 34 °F 30.2 °F 30.2 in NNE 3.6 mph 5.6 mph 82% 0 in
20:22 34 °F 30.2 °F 30.2 in NNE 0.9 mph 5.6 mph 82% 0 in
20:26 34 °F 30.2 °F 30.2 in NNE 3.4 mph 4.3 mph 82% 0 in
20:32 34 °F 30.2 °F 30.3 in NE 3.6 mph 4.3 mph 82% 0 in
20:37 34 °F 30.2 °F 30.3 in NNE 3.8 mph 5.8 mph 82% 0 in
20:42 34 °F 30.2 °F 30.3 in NE 3.4 mph 6 mph 82% 0 in
20:47 34 °F 30.2 °F 30.3 in NNE 3.4 mph 6 mph 82% 0 in
20:52 34 °F 30.2 °F 30.3 in NE 1.6 mph 4.7 mph 82% 0 in
20:57 34 °F 30.2 °F 30.3 in NNW 3.8 mph 4.3 mph 82% 0 in
21:02 34 °F 30.2 °F 30.3 in NE 4 mph 4.3 mph 82% 0 in
21:07 34 °F 30.2 °F 30.3 in NNE 3.4 mph 4.3 mph 82% 0 in
21:12 33.8 °F 30.2 °F 30.3 in NNW 1.3 mph 3.8 mph 82% 0 in
21:17 33.8 °F 30.2 °F 30.3 in NE 2.2 mph 4.3 mph 82% 0 in
21:22 33.8 °F 30.2 °F 30.3 in NNE 1.1 mph 4.3 mph 82% 0 in
21:27 33.8 °F 30.2 °F 30.3 in North 5.6 mph 5.6 mph 82% 0 in
21:32 34.2 °F 30.2 °F 30.3 in NNW 4 mph 5.6 mph 84% 0 in
21:37 34.2 °F 30.2 °F 30.3 in NNE 1.3 mph 5.8 mph 84% 0 in
21:42 34.2 °F 30.2 °F 30.3 in North 3.1 mph 5.8 mph 84% 0 in
21:47 34.3 °F 30.2 °F 30.3 in Calm   5.6 mph 84% 0 in
21:53 34.3 °F 30.2 °F 30.3 in NNE 4 mph 5.6 mph 84% 0 in
21:58 34.3 °F 30.2 °F 30.3 in NE 4 mph 6.3 mph 84% 0 in
22:03 34.9 °F 32 °F 30.3 in NNE 4.9 mph 6.5 mph 86% 0 in
22:08 34.9 °F 32 °F 30.3 in NE 2.5 mph 6.5 mph 86% 0 in
22:13 34.9 °F 32 °F 30.3 in NE 7.8 mph 7.8 mph 86% 0 in
22:18 34.9 °F 32 °F 30.3 in NE 5.6 mph 7.8 mph 86% 0 in
22:23 34.9 °F 32 °F 30.3 in North 5.4 mph 8.1 mph 86% 0 in
22:28 34.9 °F 32 °F 30.3 in North 6 mph 8.1 mph 86% 0 in
22:33 35.4 °F 32 °F 30.3 in NNE 6.9 mph 8.5 mph 88% 0 in
22:38 35.4 °F 32 °F 30.3 in NE 4 mph 8.5 mph 88% 0 in
22:43 35.4 °F 32 °F 30.3 in ENE 6 mph 10.1 mph 88% 0 in
22:48 35.4 °F 32 °F 30.2 in NE 8.7 mph 10.1 mph 88% 0 in
22:53 35.8 °F 33.8 °F 30.2 in NE 10.1 mph 11.9 mph 90% 0 in
22:58 36 °F 33.8 °F 30.2 in NNE 8.7 mph 11.9 mph 90% 0 in
23:03 36 °F 33.8 °F 30.2 in ENE 8.7 mph 11 mph 90% 0 in
23:08 36.1 °F 33.8 °F 30.2 in ENE 8.7 mph 13.4 mph 90% 0 in
23:13 36.1 °F 33.8 °F 30.2 in NE 6.5 mph 13.4 mph 90% 0 in
23:19 36.1 °F 33.8 °F 30.2 in East 7.2 mph 8.7 mph 90% 0 in
23:24 36.1 °F 33.8 °F 30.2 in ENE 6.3 mph 8.1 mph 90% 0 in
23:29 36.1 °F 33.8 °F 30.2 in NE 5.4 mph 7.4 mph 90% 0 in
23:34 36.1 °F 33.8 °F 30.2 in East 5.4 mph 8.5 mph 90% 0 in
23:39 36.1 °F 33.8 °F 30.2 in ENE 3.6 mph 8.5 mph 90% 0 in
23:44 36.1 °F 33.8 °F 30.2 in ENE 5.4 mph 7.2 mph 90% 0 in
23:49 36.1 °F 33.8 °F 30.2 in NE 4.7 mph 7.2 mph 90% 0 in
23:54 36.1 °F 33.8 °F 30.2 in East 5.4 mph 8.1 mph 90% 0 in
23:59 36.1 °F 33.8 °F 30.3 in NE 8.5 mph 8.5 mph 90% 0 in
Données Historique de Météo Turbie

Mise a jour : 22/05/2018 19:52:12
Généré par Cumulus 1.9.4 (1099)